Terminal Aerodrome Forecast
Issued by NWS Duluth, MN

Home | Current Version | Previous Version | Text Only | Print | Product List | Glossary On
Versions: 1 2 3 4 5 6 7 8 9 10 11 12 13 14 15 16 17 18 19
000
FTUS43 KDLH 250600 AAA
TAFINL
TAF AMD
KINL 250641Z 2507/2606 27010KT P6SM SKC
      TEMPO 2507/2511 29010G20KT
     FM251100 28010G22KT P6SM SKC
     FM251800 30015G28KT P6SM SKC
     FM260000 27007KT P6SM SKC=

USA.gov is the U.S. government's official web portal to all federal, state and local government web resources and services.